Location: Brotuna
(46.2000°N, 22.6000°E)
Time: 01:30:49
(UTC+00:00)

COSMOS 2455 - Pass Details

Date: 09 April 2020
Orbit: 899 x 910 km, 67.1° (Epoch: 03 June)

Event Time Altitude Azimuth Distance (km) Brightness Sun altitude
Rises 18:17:18 0° 327° (NNW) 3,545 7.0 -11.9°
Reaches altitude 10° 18:19:50 10° 329° (NNW) 2,602 6.2 -12.3°
Maximum altitude 18:25:53 78° 56° (NE) 933 2.8 -13.3°
Enters shadow 18:30:43 17° 142° (SE) 2,152 4.3 -14.0°
